{"data":{"norad_id":60534,"intl_designator":"2024-149BU","name":"SATELIOT_2","alt_names":[],"object_type":"PAYLOAD","status":"ACTIVE","operator":null,"country":"SPN","launch_date":"2024-08-16","launch_site_code":"AFWTR","launch_vehicle":null,"mission":null,"orbit_class":"UNKNOWN","rcs_meters":null,"size_class":null,"mass_kg":null,"dimensions":null,"purposes":[],"wikipedia_slug":null,"has_3d_model":false,"image_url":null,"decayed_at":null,"tle_current":{"epoch":"2026-05-25T03:44:35.288736Z","epoch_age_seconds":64842,"freshness":"FRESH","line1":"1 60534U 24149BU  26145.15596399  .00002087  00000+0  18988-3 0  9996","line2":"2 60534  97.6831 220.5328 0001913 110.4024 249.7403 14.96260389 96521","mean_motion":14.96260389,"eccentricity":0.0001913,"inclination_deg":97.6831,"raan_deg":220.5328,"arg_perigee_deg":110.4024,"mean_anomaly_deg":249.7403,"bstar":0.00018988,"rev_number":9652,"period_min":96.239933275411,"perigee_km":577.13257058045,"apogee_km":579.79416588133,"semimajor_km":6956.6003682309,"source":"CELESTRAK","updated_at":"2026-05-25T13:38:02.146207Z"}}}